Date_Time,Julian_Date,Latitude,Longitude,Instrument_Depth,U,V,Speed,Direction
(yyyy-mm-dd hh:mn:ss UTC),(JD),(+ deg. North),(+ deg. East),(m),(cm/s),(cm/s),(cm/s),(deg True)
1983-10-04 17:00:00 UTC,2445612.208333,28.7317,-95.2428,0036,8.63,8.34,12.0000,46.0000
1983-10-04 17:30:00 UTC,2445612.229167,28.7317,-95.2428,0036,9.66,8.70,13.0000,48.0000
1983-10-04 18:00:00 UTC,2445612.250000,28.7317,-95.2428,0036,9.81,8.53,13.0000,49.0000
1983-10-04 18:30:00 UTC,2445612.270833,28.7317,-95.2428,0036,8.92,8.03,12.0000,48.0000
1983-10-04 19:00:00 UTC,2445612.291667,28.7317,-95.2428,0036,8.63,8.34,12.0000,46.0000
1983-10-04 19:30:00 UTC,2445612.312500,28.7317,-95.2428,0036,9.12,6.15,11.0000,56.0000
1983-10-04 20:00:00 UTC,2445612.333333,28.7317,-95.2428,0036,10.98,-0.58,11.0000,93.0000
1983-10-04 20:30:00 UTC,2445612.354167,28.7317,-95.2428,0036,11.03,-8.62,14.0000,128.0000
1983-10-04 21:00:00 UTC,2445612.375000,28.7317,-95.2428,0036,7.83,-11.61,14.0000,146.0000
1983-10-04 21:30:00 UTC,2445612.395833,28.7317,-95.2428,0036,4.66,-12.14,13.0000,159.0000
1983-10-04 22:00:00 UTC,2445612.416667,28.7317,-95.2428,0036,2.60,-14.77,15.0000,170.0000
1983-10-04 22:30:00 UTC,2445612.437500,28.7317,-95.2428,0036,0.24,-14.00,14.0000,179.0000
1983-10-04 23:00:00 UTC,2445612.458333,28.7317,-95.2428,0036,-2.29,-10.76,11.0000,192.0000
1983-10-04 23:30:00 UTC,2445612.479167,28.7317,-95.2428,0036,-3.63,-7.13,8.0000,207.0000
1983-10-05 00:00:00 UTC,2445612.500000,28.7317,-95.2428,0036,-3.01,-3.99,5.0000,217.0000
1983-10-05 00:30:00 UTC,2445612.520833,28.7317,-95.2428,0036,-1.39,-1.44,2.0000,224.0000
1983-10-05 01:00:00 UTC,2445612.541667,28.7317,-95.2428,0036,-0.24,0.97,1.0000,346.0000
1983-10-05 01:30:00 UTC,2445612.562500,28.7317,-95.2428,0036,1.04,4.89,5.0000,12.0000
1983-10-05 02:00:00 UTC,2445612.583333,28.7317,-95.2428,0036,1.69,6.79,7.0000,14.0000
1983-10-05 02:30:00 UTC,2445612.604167,28.7317,-95.2428,0036,0.31,8.99,9.0000,2.0000
1983-10-05 03:00:00 UTC,2445612.625000,28.7317,-95.2428,0036,-0.23,13.00,13.0000,359.0000
1983-10-05 03:30:00 UTC,2445612.645833,28.7317,-95.2428,0036,0.59,16.99,17.0000,2.0000
1983-10-05 04:00:00 UTC,2445612.666667,28.7317,-95.2428,0036,-0.31,18.00,18.0000,359.0000
1983-10-05 04:30:00 UTC,2445612.687500,28.7317,-95.2428,0036,-1.88,17.90,18.0000,354.0000
1983-10-05 05:00:00 UTC,2445612.708333,28.7317,-95.2428,0036,-1.66,18.93,19.0000,355.0000
1983-10-05 05:30:00 UTC,2445612.729167,28.7317,-95.2428,0036,-0.35,20.00,20.0000,359.0000
1983-10-05 06:00:00 UTC,2445612.750000,28.7317,-95.2428,0036,1.92,21.92,22.0000,5.0000
1983-10-05 06:30:00 UTC,2445612.770833,28.7317,-95.2428,0036,4.39,22.58,23.0000,11.0000
1983-10-05 07:00:00 UTC,2445612.791667,28.7317,-95.2428,0036,6.47,24.15,25.0000,15.0000
1983-10-05 07:30:00 UTC,2445612.812500,28.7317,-95.2428,0036,7.81,22.69,24.0000,19.0000
1983-10-05 08:00:00 UTC,2445612.833333,28.7317,-95.2428,0036,10.08,20.67,23.0000,26.0000
1983-10-05 08:30:00 UTC,2445612.854167,28.7317,-95.2428,0036,12.19,19.51,23.0000,32.0000
1983-10-05 09:00:00 UTC,2445612.875000,28.7317,-95.2428,0036,15.05,19.97,25.0000,37.0000
1983-10-05 09:30:00 UTC,2445612.895833,28.7317,-95.2428,0036,15.75,18.11,24.0000,41.0000
1983-10-05 10:00:00 UTC,2445612.916667,28.7317,-95.2428,0036,15.39,17.09,23.0000,42.0000
1983-10-05 10:30:00 UTC,2445612.937500,28.7317,-95.2428,0036,15.09,17.36,23.0000,41.0000
1983-10-05 11:00:00 UTC,2445612.958333,28.7317,-95.2428,0036,16.82,15.69,23.0000,47.0000
1983-10-05 11:30:00 UTC,2445612.979167,28.7317,-95.2428,0036,21.17,8.99,23.0000,67.0000
1983-10-05 12:00:00 UTC,2445613.000000,28.7317,-95.2428,0036,26.50,-5.15,27.0000,101.0000
1983-10-05 12:30:00 UTC,2445613.020833,28.7317,-95.2428,0036,28.51,-18.52,34.0000,123.0000
1983-10-05 13:00:00 UTC,2445613.041667,28.7317,-95.2428,0036,29.43,-25.59,39.0000,131.0000
1983-10-05 13:30:00 UTC,2445613.062500,28.7317,-95.2428,0036,28.05,-27.09,39.0000,134.0000
1983-10-05 14:00:00 UTC,2445613.083333,28.7317,-95.2428,0036,25.43,-28.24,38.0000,138.0000
1983-10-05 14:30:00 UTC,2445613.104167,28.7317,-95.2428,0036,22.50,-26.81,35.0000,140.0000
1983-10-05 15:00:00 UTC,2445613.125000,28.7317,-95.2428,0036,21.41,-23.78,32.0000,138.0000
1983-10-05 15:30:00 UTC,2445613.145833,28.7317,-95.2428,0036,18.70,-18.06,26.0000,134.0000
1983-10-05 16:00:00 UTC,2445613.166667,28.7317,-95.2428,0036,15.93,-10.35,19.0000,123.0000
1983-10-05 16:30:00 UTC,2445613.187500,28.7317,-95.2428,0036,17.47,-4.35,18.0000,104.0000
1983-10-05 17:00:00 UTC,2445613.208333,28.7317,-95.2428,0036,19.81,-2.78,20.0000,98.0000
1983-10-05 17:30:00 UTC,2445613.229167,28.7317,-95.2428,0036,20.61,-4.01,21.0000,101.0000
1983-10-05 18:00:00 UTC,2445613.250000,28.7317,-95.2428,0036,21.25,-5.69,22.0000,105.0000
1983-10-05 18:30:00 UTC,2445613.270833,28.7317,-95.2428,0036,22.83,-7.42,24.0000,108.0000
1983-10-05 19:00:00 UTC,2445613.291667,28.7317,-95.2428,0036,23.64,-8.14,25.0000,109.0000
1983-10-05 19:30:00 UTC,2445613.312500,28.7317,-95.2428,0036,23.49,-8.55,25.0000,110.0000
1983-10-05 20:00:00 UTC,2445613.333333,28.7317,-95.2428,0036,23.34,-8.96,25.0000,111.0000
1983-10-05 20:30:00 UTC,2445613.354167,28.7317,-95.2428,0036,23.34,-8.96,25.0000,111.0000
1983-10-05 21:00:00 UTC,2445613.375000,28.7317,-95.2428,0036,23.34,-8.96,25.0000,111.0000
1983-10-05 21:30:00 UTC,2445613.395833,28.7317,-95.2428,0036,23.18,-9.37,25.0000,112.0000
1983-10-05 22:00:00 UTC,2445613.416667,28.7317,-95.2428,0036,23.75,-10.58,26.0000,114.0000
1983-10-05 22:30:00 UTC,2445613.437500,28.7317,-95.2428,0036,22.74,-12.61,26.0000,119.0000
1983-10-05 23:00:00 UTC,2445613.458333,28.7317,-95.2428,0036,21.55,-14.54,26.0000,124.0000
1983-10-05 23:30:00 UTC,2445613.479167,28.7317,-95.2428,0036,20.49,-16.01,26.0000,128.0000
1983-10-06 00:00:00 UTC,2445613.500000,28.7317,-95.2428,0036,19.62,-17.06,26.0000,131.0000
1983-10-06 00:30:00 UTC,2445613.520833,28.7317,-95.2428,0036,18.28,-17.05,25.0000,133.0000
1983-10-06 01:00:00 UTC,2445613.541667,28.7317,-95.2428,0036,17.26,-16.67,24.0000,134.0000
1983-10-06 01:30:00 UTC,2445613.562500,28.7317,-95.2428,0036,16.54,-15.98,23.0000,134.0000
1983-10-06 02:00:00 UTC,2445613.583333,28.7317,-95.2428,0036,16.09,-15.00,22.0000,133.0000
1983-10-06 02:30:00 UTC,2445613.604167,28.7317,-95.2428,0036,15.83,-15.28,22.0000,134.0000
1983-10-06 03:00:00 UTC,2445613.625000,28.7317,-95.2428,0036,15.83,-15.28,22.0000,134.0000
1983-10-06 03:30:00 UTC,2445613.645833,28.7317,-95.2428,0036,16.26,-16.26,23.0000,135.0000
1983-10-06 04:00:00 UTC,2445613.666667,28.7317,-95.2428,0036,15.83,-15.28,22.0000,134.0000
1983-10-06 04:30:00 UTC,2445613.687500,28.7317,-95.2428,0036,12.63,-11.38,17.0000,132.0000
1983-10-06 05:00:00 UTC,2445613.708333,28.7317,-95.2428,0036,10.88,-8.81,14.0000,129.0000
1983-10-06 05:30:00 UTC,2445613.729167,28.7317,-95.2428,0036,12.94,-9.40,16.0000,126.0000
1983-10-06 06:00:00 UTC,2445613.750000,28.7317,-95.2428,0036,15.75,-10.62,19.0000,124.0000
1983-10-06 06:30:00 UTC,2445613.770833,28.7317,-95.2428,0036,16.11,-10.07,19.0000,122.0000
1983-10-06 07:00:00 UTC,2445613.791667,28.7317,-95.2428,0036,15.59,-9.00,18.0000,120.0000
1983-10-06 07:30:00 UTC,2445613.812500,28.7317,-95.2428,0036,13.59,-6.34,15.0000,115.0000
1983-10-06 08:00:00 UTC,2445613.833333,28.7317,-95.2428,0036,11.59,-3.11,12.0000,105.0000
1983-10-06 08:30:00 UTC,2445613.854167,28.7317,-95.2428,0036,9.93,-1.22,10.0000,97.0000
1983-10-06 09:00:00 UTC,2445613.875000,28.7317,-95.2428,0036,9.90,-1.39,10.0000,98.0000
1983-10-06 09:30:00 UTC,2445613.895833,28.7317,-95.2428,0036,9.74,-2.25,10.0000,103.0000
1983-10-06 10:00:00 UTC,2445613.916667,28.7317,-95.2428,0036,9.34,-3.58,10.0000,111.0000
1983-10-06 10:30:00 UTC,2445613.937500,28.7317,-95.2428,0036,9.62,-5.33,11.0000,119.0000
1983-10-06 11:00:00 UTC,2445613.958333,28.7317,-95.2428,0036,9.83,-6.88,12.0000,125.0000
1983-10-06 11:30:00 UTC,2445613.979167,28.7317,-95.2428,0036,10.38,-7.82,13.0000,127.0000
1983-10-06 12:00:00 UTC,2445614.000000,28.7317,-95.2428,0036,11.87,-7.42,14.0000,122.0000
1983-10-06 12:30:00 UTC,2445614.020833,28.7317,-95.2428,0036,14.26,-7.26,16.0000,117.0000
1983-10-06 13:00:00 UTC,2445614.041667,28.7317,-95.2428,0036,17.08,-8.33,19.0000,116.0000
1983-10-06 13:30:00 UTC,2445614.062500,28.7317,-95.2428,0036,17.32,-10.00,20.0000,120.0000
1983-10-06 14:00:00 UTC,2445614.083333,28.7317,-95.2428,0036,16.96,-10.60,20.0000,122.0000
1983-10-06 14:30:00 UTC,2445614.104167,28.7317,-95.2428,0036,17.14,-10.30,20.0000,121.0000
1983-10-06 15:00:00 UTC,2445614.125000,28.7317,-95.2428,0036,18.37,-10.18,21.0000,119.0000
1983-10-06 15:30:00 UTC,2445614.145833,28.7317,-95.2428,0036,17.82,-9.08,20.0000,117.0000
1983-10-06 16:00:00 UTC,2445614.166667,28.7317,-95.2428,0036,15.28,-7.45,17.0000,116.0000
1983-10-06 16:30:00 UTC,2445614.187500,28.7317,-95.2428,0036,14.94,-5.73,16.0000,111.0000
1983-10-06 17:00:00 UTC,2445614.208333,28.7317,-95.2428,0036,14.34,-4.39,15.0000,107.0000
1983-10-06 17:30:00 UTC,2445614.229167,28.7317,-95.2428,0036,12.22,-4.45,13.0000,110.0000
1983-10-06 18:00:00 UTC,2445614.250000,28.7317,-95.2428,0036,11.13,-4.50,12.0000,112.0000
1983-10-06 18:30:00 UTC,2445614.270833,28.7317,-95.2428,0036,9.34,-3.58,10.0000,111.0000
1983-10-06 19:00:00 UTC,2445614.291667,28.7317,-95.2428,0036,6.44,-2.74,7.0000,113.0000
1983-10-06 19:30:00 UTC,2445614.312500,28.7317,-95.2428,0036,3.02,-2.62,4.0000,131.0000
1983-10-06 20:00:00 UTC,2445614.333333,28.7317,-95.2428,0036,1.43,-3.73,4.0000,159.0000
1983-10-06 20:30:00 UTC,2445614.354167,28.7317,-95.2428,0036,-0.87,-4.92,5.0000,190.0000
1983-10-06 21:00:00 UTC,2445614.375000,28.7317,-95.2428,0036,-6.12,-3.39,7.0000,241.0000
1983-10-06 21:30:00 UTC,2445614.395833,28.7317,-95.2428,0036,-12.72,-2.70,13.0000,258.0000
1983-10-06 22:00:00 UTC,2445614.416667,28.7317,-95.2428,0036,-14.55,-3.63,15.0000,256.0000
1983-10-06 22:30:00 UTC,2445614.437500,28.7317,-95.2428,0036,-14.42,-4.13,15.0000,254.0000
1983-10-06 23:00:00 UTC,2445614.458333,28.7317,-95.2428,0036,-12.76,-2.48,13.0000,259.0000
1983-10-06 23:30:00 UTC,2445614.479167,28.7317,-95.2428,0036,-9.78,-2.08,10.0000,258.0000
1983-10-07 00:00:00 UTC,2445614.500000,28.7317,-95.2428,0036,-5.56,-5.75,8.0000,224.0000
1983-10-07 00:30:00 UTC,2445614.520833,28.7317,-95.2428,0036,-1.91,-9.82,10.0000,191.0000
1983-10-07 01:00:00 UTC,2445614.541667,28.7317,-95.2428,0036,-0.77,-10.97,11.0000,184.0000
1983-10-07 01:30:00 UTC,2445614.562500,28.7317,-95.2428,0036,0.42,-11.99,12.0000,178.0000
1983-10-07 02:00:00 UTC,2445614.583333,28.7317,-95.2428,0036,1.95,-13.86,14.0000,172.0000
1983-10-07 02:30:00 UTC,2445614.604167,28.7317,-95.2428,0036,3.12,-14.67,15.0000,168.0000
1983-10-07 03:00:00 UTC,2445614.625000,28.7317,-95.2428,0036,3.33,-15.65,16.0000,168.0000
1983-10-07 03:30:00 UTC,2445614.645833,28.7317,-95.2428,0036,3.33,-15.65,16.0000,168.0000
1983-10-07 04:00:00 UTC,2445614.666667,28.7317,-95.2428,0036,3.37,-14.62,15.0000,167.0000
1983-10-07 04:30:00 UTC,2445614.687500,28.7317,-95.2428,0036,3.88,-14.49,15.0000,165.0000
1983-10-07 05:00:00 UTC,2445614.708333,28.7317,-95.2428,0036,4.09,-13.39,14.0000,163.0000
1983-10-07 05:30:00 UTC,2445614.729167,28.7317,-95.2428,0036,3.09,-9.51,10.0000,162.0000
1983-10-07 06:00:00 UTC,2445614.750000,28.7317,-95.2428,0036,2.15,-5.60,6.0000,159.0000
1983-10-07 06:30:00 UTC,2445614.770833,28.7317,-95.2428,0036,2.03,-4.57,5.0000,156.0000
1983-10-07 07:00:00 UTC,2445614.791667,28.7317,-95.2428,0036,2.72,-5.35,6.0000,153.0000
1983-10-07 07:30:00 UTC,2445614.812500,28.7317,-95.2428,0036,3.18,-6.24,7.0000,153.0000
1983-10-07 08:00:00 UTC,2445614.833333,28.7317,-95.2428,0036,3.51,-7.19,8.0000,154.0000
1983-10-07 08:30:00 UTC,2445614.854167,28.7317,-95.2428,0036,3.38,-7.25,8.0000,155.0000
1983-10-07 09:00:00 UTC,2445614.875000,28.7317,-95.2428,0036,3.00,-7.42,8.0000,158.0000
1983-10-07 09:30:00 UTC,2445614.895833,28.7317,-95.2428,0036,2.07,-7.73,8.0000,165.0000
1983-10-07 10:00:00 UTC,2445614.916667,28.7317,-95.2428,0036,1.67,-11.88,12.0000,172.0000
1983-10-07 10:30:00 UTC,2445614.937500,28.7317,-95.2428,0036,0.63,-17.99,18.0000,178.0000
1983-10-07 11:00:00 UTC,2445614.958333,28.7317,-95.2428,0036,-1.60,-22.94,23.0000,184.0000
1983-10-07 11:30:00 UTC,2445614.979167,28.7317,-95.2428,0036,-3.91,-24.69,25.0000,189.0000
1983-10-07 12:00:00 UTC,2445615.000000,28.7317,-95.2428,0036,-4.58,-23.56,24.0000,191.0000
1983-10-07 12:30:00 UTC,2445615.020833,28.7317,-95.2428,0036,-3.74,-17.61,18.0000,192.0000
1983-10-07 13:00:00 UTC,2445615.041667,28.7317,-95.2428,0036,-2.70,-12.72,13.0000,192.0000
1983-10-07 13:30:00 UTC,2445615.062500,28.7317,-95.2428,0036,-2.67,-13.74,14.0000,191.0000
1983-10-07 14:00:00 UTC,2445615.083333,28.7317,-95.2428,0036,-2.67,-13.74,14.0000,191.0000
1983-10-07 14:30:00 UTC,2445615.104167,28.7317,-95.2428,0036,-2.67,-13.74,14.0000,191.0000
1983-10-07 15:00:00 UTC,2445615.125000,28.7317,-95.2428,0036,-2.48,-12.76,13.0000,191.0000
1983-10-07 15:30:00 UTC,2445615.145833,28.7317,-95.2428,0036,-2.29,-11.78,12.0000,191.0000
1983-10-07 16:00:00 UTC,2445615.166667,28.7317,-95.2428,0036,-2.10,-10.80,11.0000,191.0000
1983-10-07 16:30:00 UTC,2445615.187500,28.7317,-95.2428,0036,-1.56,-9.88,10.0000,189.0000
1983-10-07 17:00:00 UTC,2445615.208333,28.7317,-95.2428,0036,-0.63,-8.98,9.0000,184.0000
1983-10-07 17:30:00 UTC,2445615.229167,28.7317,-95.2428,0036,0.78,-8.97,9.0000,175.0000
1983-10-07 18:00:00 UTC,2445615.250000,28.7317,-95.2428,0036,1.72,-8.83,9.0000,169.0000
1983-10-07 18:30:00 UTC,2445615.270833,28.7317,-95.2428,0036,1.72,-8.83,9.0000,169.0000
1983-10-07 19:00:00 UTC,2445615.291667,28.7317,-95.2428,0036,0.42,-7.99,8.0000,177.0000
1983-10-07 19:30:00 UTC,2445615.312500,28.7317,-95.2428,0036,-1.95,-5.67,6.0000,199.0000
1983-10-07 20:00:00 UTC,2445615.333333,28.7317,-95.2428,0036,-4.46,-4.01,6.0000,228.0000
1983-10-07 20:30:00 UTC,2445615.354167,28.7317,-95.2428,0036,-4.53,-2.11,5.0000,245.0000
1983-10-07 21:00:00 UTC,2445615.375000,28.7317,-95.2428,0036,-5.82,-1.45,6.0000,256.0000
1983-10-07 21:30:00 UTC,2445615.395833,28.7317,-95.2428,0036,-6.00,-0.00,6.0000,270.0000
1983-10-07 22:00:00 UTC,2445615.416667,28.7317,-95.2428,0036,-5.85,1.35,6.0000,283.0000
1983-10-07 22:30:00 UTC,2445615.437500,28.7317,-95.2428,0036,-4.76,1.55,5.0000,288.0000
1983-10-07 23:00:00 UTC,2445615.458333,28.7317,-95.2428,0036,-3.73,1.43,4.0000,291.0000
1983-10-07 23:30:00 UTC,2445615.479167,28.7317,-95.2428,0036,-1.85,0.75,2.0000,292.0000
1983-10-08 00:00:00 UTC,2445615.500000,28.7317,-95.2428,0036,-0.95,0.31,1.0000,288.0000
1983-10-08 00:30:00 UTC,2445615.520833,28.7317,-95.2428,0036,0.65,-1.89,2.0000,161.0000
1983-10-08 01:00:00 UTC,2445615.541667,28.7317,-95.2428,0036,3.13,-7.36,8.0000,157.0000
1983-10-08 01:30:00 UTC,2445615.562500,28.7317,-95.2428,0036,6.10,-13.70,15.0000,156.0000
1983-10-08 02:00:00 UTC,2445615.583333,28.7317,-95.2428,0036,8.03,-17.22,19.0000,155.0000
1983-10-08 02:30:00 UTC,2445615.604167,28.7317,-95.2428,0036,8.24,-20.40,22.0000,158.0000
1983-10-08 03:00:00 UTC,2445615.625000,28.7317,-95.2428,0036,6.06,-21.15,22.0000,164.0000
1983-10-08 03:30:00 UTC,2445615.645833,28.7317,-95.2428,0036,3.65,-20.68,21.0000,170.0000
1983-10-08 04:00:00 UTC,2445615.666667,28.7317,-95.2428,0036,2.09,-19.89,20.0000,174.0000
1983-10-08 04:30:00 UTC,2445615.687500,28.7317,-95.2428,0036,0.37,-21.00,21.0000,179.0000
1983-10-08 05:00:00 UTC,2445615.708333,28.7317,-95.2428,0036,-2.30,-21.88,22.0000,186.0000
1983-10-08 05:30:00 UTC,2445615.729167,28.7317,-95.2428,0036,-4.16,-19.56,20.0000,192.0000
1983-10-08 06:00:00 UTC,2445615.750000,28.7317,-95.2428,0036,-4.39,-14.34,15.0000,197.0000
1983-10-08 06:30:00 UTC,2445615.770833,28.7317,-95.2428,0036,-3.75,-9.27,10.0000,202.0000
1983-10-08 07:00:00 UTC,2445615.791667,28.7317,-95.2428,0036,-3.52,-8.28,9.0000,203.0000
1983-10-08 07:30:00 UTC,2445615.812500,28.7317,-95.2428,0036,-3.23,-8.40,9.0000,201.0000
1983-10-08 08:00:00 UTC,2445615.833333,28.7317,-95.2428,0036,-3.42,-9.40,10.0000,200.0000
1983-10-08 08:30:00 UTC,2445615.854167,28.7317,-95.2428,0036,-3.58,-9.34,10.0000,201.0000
1983-10-08 09:00:00 UTC,2445615.875000,28.7317,-95.2428,0036,-4.07,-9.14,10.0000,204.0000
1983-10-08 09:30:00 UTC,2445615.895833,28.7317,-95.2428,0036,-4.54,-8.91,10.0000,207.0000
1983-10-08 10:00:00 UTC,2445615.916667,28.7317,-95.2428,0036,-5.50,-9.53,11.0000,210.0000
1983-10-08 10:30:00 UTC,2445615.937500,28.7317,-95.2428,0036,-8.03,-11.47,14.0000,215.0000
1983-10-08 11:00:00 UTC,2445615.958333,28.7317,-95.2428,0036,-10.79,-10.42,15.0000,226.0000
1983-10-08 11:30:00 UTC,2445615.979167,28.7317,-95.2428,0036,-11.02,-6.89,13.0000,238.0000
1983-10-08 12:00:00 UTC,2445616.000000,28.7317,-95.2428,0036,-8.90,-6.47,11.0000,234.0000
1983-10-08 12:30:00 UTC,2445616.020833,28.7317,-95.2428,0036,-6.31,-9.01,11.0000,215.0000
1983-10-08 13:00:00 UTC,2445616.041667,28.7317,-95.2428,0036,-4.65,-9.97,11.0000,205.0000
1983-10-08 13:30:00 UTC,2445616.062500,28.7317,-95.2428,0036,-4.85,-8.75,10.0000,209.0000
1983-10-08 14:00:00 UTC,2445616.083333,28.7317,-95.2428,0036,-4.81,-6.39,8.0000,217.0000
1983-10-08 14:30:00 UTC,2445616.104167,28.7317,-95.2428,0036,-4.01,-4.46,6.0000,222.0000
1983-10-08 15:00:00 UTC,2445616.125000,28.7317,-95.2428,0036,-5.94,-3.71,7.0000,238.0000
1983-10-08 15:30:00 UTC,2445616.145833,28.7317,-95.2428,0036,-9.46,-3.26,10.0000,251.0000
1983-10-08 16:00:00 UTC,2445616.166667,28.7317,-95.2428,0036,-11.82,-2.08,12.0000,260.0000
1983-10-08 16:30:00 UTC,2445616.187500,28.7317,-95.2428,0036,-12.00,-0.21,12.0000,269.0000
1983-10-08 17:00:00 UTC,2445616.208333,28.7317,-95.2428,0036,-11.85,1.88,12.0000,279.0000
1983-10-08 17:30:00 UTC,2445616.229167,28.7317,-95.2428,0036,-11.35,3.91,12.0000,289.0000
1983-10-08 18:00:00 UTC,2445616.250000,28.7317,-95.2428,0036,-9.62,5.33,11.0000,299.0000
1983-10-08 18:30:00 UTC,2445616.270833,28.7317,-95.2428,0036,-8.43,7.07,11.0000,310.0000
1983-10-08 19:00:00 UTC,2445616.291667,28.7317,-95.2428,0036,-6.92,8.55,11.0000,321.0000
1983-10-08 19:30:00 UTC,2445616.312500,28.7317,-95.2428,0036,-5.50,9.53,11.0000,330.0000
1983-10-08 20:00:00 UTC,2445616.333333,28.7317,-95.2428,0036,-3.13,7.36,8.0000,337.0000
1983-10-08 20:30:00 UTC,2445616.354167,28.7317,-95.2428,0036,-1.94,7.76,8.0000,346.0000
1983-10-08 21:00:00 UTC,2445616.375000,28.7317,-95.2428,0036,-2.08,11.82,12.0000,350.0000
1983-10-08 21:30:00 UTC,2445616.395833,28.7317,-95.2428,0036,-2.03,12.84,13.0000,351.0000
1983-10-08 22:00:00 UTC,2445616.416667,28.7317,-95.2428,0036,-1.05,11.95,12.0000,355.0000
1983-10-08 22:30:00 UTC,2445616.437500,28.7317,-95.2428,0036,0.19,11.00,11.0000,1.0000
1983-10-08 23:00:00 UTC,2445616.458333,28.7317,-95.2428,0036,0.96,10.96,11.0000,5.0000
1983-10-08 23:30:00 UTC,2445616.479167,28.7317,-95.2428,0036,-1.05,11.95,12.0000,355.0000
1983-10-09 00:00:00 UTC,2445616.500000,28.7317,-95.2428,0036,-4.97,16.26,17.0000,343.0000
1983-10-09 00:30:00 UTC,2445616.520833,28.7317,-95.2428,0036,-6.16,16.91,18.0000,340.0000
1983-10-09 01:00:00 UTC,2445616.541667,28.7317,-95.2428,0036,-5.53,16.07,17.0000,341.0000
1983-10-09 01:30:00 UTC,2445616.562500,28.7317,-95.2428,0036,-5.53,16.07,17.0000,341.0000
1983-10-09 02:00:00 UTC,2445616.583333,28.7317,-95.2428,0036,-5.86,17.02,18.0000,341.0000
1983-10-09 02:30:00 UTC,2445616.604167,28.7317,-95.2428,0036,-6.19,17.96,19.0000,341.0000
1983-10-09 03:00:00 UTC,2445616.625000,28.7317,-95.2428,0036,-6.18,19.02,20.0000,342.0000
1983-10-09 03:30:00 UTC,2445616.645833,28.7317,-95.2428,0036,-5.85,19.13,20.0000,343.0000
1983-10-09 04:00:00 UTC,2445616.666667,28.7317,-95.2428,0036,-5.51,19.23,20.0000,344.0000
1983-10-09 04:30:00 UTC,2445616.687500,28.7317,-95.2428,0036,-4.60,18.44,19.0000,346.0000
1983-10-09 05:00:00 UTC,2445616.708333,28.7317,-95.2428,0036,-4.27,18.51,19.0000,347.0000
1983-10-09 05:30:00 UTC,2445616.729167,28.7317,-95.2428,0036,-3.74,17.61,18.0000,348.0000
1983-10-09 06:00:00 UTC,2445616.750000,28.7317,-95.2428,0036,-3.95,18.58,19.0000,348.0000
1983-10-09 06:30:00 UTC,2445616.770833,28.7317,-95.2428,0036,-4.60,18.44,19.0000,346.0000
1983-10-09 07:00:00 UTC,2445616.791667,28.7317,-95.2428,0036,-5.51,19.23,20.0000,344.0000
1983-10-09 07:30:00 UTC,2445616.812500,28.7317,-95.2428,0036,-6.80,20.92,22.0000,342.0000
1983-10-09 08:00:00 UTC,2445616.833333,28.7317,-95.2428,0036,-7.81,22.69,24.0000,341.0000
1983-10-09 08:30:00 UTC,2445616.854167,28.7317,-95.2428,0036,-7.73,23.78,25.0000,342.0000
1983-10-09 09:00:00 UTC,2445616.875000,28.7317,-95.2428,0036,-6.99,26.08,27.0000,345.0000
1983-10-09 09:30:00 UTC,2445616.895833,28.7317,-95.2428,0036,-8.54,29.80,31.0000,344.0000
1983-10-09 10:00:00 UTC,2445616.916667,28.7317,-95.2428,0036,-11.47,29.87,32.0000,339.0000
1983-10-09 10:30:00 UTC,2445616.937500,28.7317,-95.2428,0036,-12.11,28.54,31.0000,337.0000
1983-10-09 11:00:00 UTC,2445616.958333,28.7317,-95.2428,0036,-11.39,25.58,28.0000,336.0000
1983-10-09 11:30:00 UTC,2445616.979167,28.7317,-95.2428,0036,-10.17,22.84,25.0000,336.0000
1983-10-09 12:00:00 UTC,2445617.000000,28.7317,-95.2428,0036,-10.14,21.75,24.0000,335.0000
1983-10-09 12:30:00 UTC,2445617.020833,28.7317,-95.2428,0036,-11.50,19.92,23.0000,330.0000
1983-10-09 13:00:00 UTC,2445617.041667,28.7317,-95.2428,0036,-13.19,18.84,23.0000,325.0000
1983-10-09 13:30:00 UTC,2445617.062500,28.7317,-95.2428,0036,-13.84,18.37,23.0000,323.0000
1983-10-09 14:00:00 UTC,2445617.083333,28.7317,-95.2428,0036,-12.93,17.80,22.0000,324.0000
1983-10-09 14:30:00 UTC,2445617.104167,28.7317,-95.2428,0036,-11.74,17.41,21.0000,326.0000
1983-10-09 15:00:00 UTC,2445617.125000,28.7317,-95.2428,0036,-10.89,16.77,20.0000,327.0000
1983-10-09 15:30:00 UTC,2445617.145833,28.7317,-95.2428,0036,-10.07,16.11,19.0000,328.0000
1983-10-09 16:00:00 UTC,2445617.166667,28.7317,-95.2428,0036,-10.35,15.93,19.0000,327.0000
1983-10-09 16:30:00 UTC,2445617.187500,28.7317,-95.2428,0036,-10.62,15.75,19.0000,326.0000
1983-10-09 17:00:00 UTC,2445617.208333,28.7317,-95.2428,0036,-10.89,16.77,20.0000,327.0000
1983-10-09 17:30:00 UTC,2445617.229167,28.7317,-95.2428,0036,-11.13,17.81,21.0000,328.0000
1983-10-09 18:00:00 UTC,2445617.250000,28.7317,-95.2428,0036,-11.00,19.05,22.0000,330.0000
1983-10-09 18:30:00 UTC,2445617.270833,28.7317,-95.2428,0036,-11.27,21.19,24.0000,332.0000
1983-10-09 19:00:00 UTC,2445617.291667,28.7317,-95.2428,0036,-11.80,23.17,26.0000,333.0000
1983-10-09 19:30:00 UTC,2445617.312500,28.7317,-95.2428,0036,-11.41,24.47,27.0000,335.0000
1983-10-09 20:00:00 UTC,2445617.333333,28.7317,-95.2428,0036,-10.99,23.56,26.0000,335.0000
1983-10-09 20:30:00 UTC,2445617.354167,28.7317,-95.2428,0036,-12.61,22.74,26.0000,331.0000
1983-10-09 21:00:00 UTC,2445617.375000,28.7317,-95.2428,0036,-16.25,21.56,27.0000,323.0000
1983-10-09 21:30:00 UTC,2445617.395833,28.7317,-95.2428,0036,-18.37,21.13,28.0000,319.0000
1983-10-09 22:00:00 UTC,2445617.416667,28.7317,-95.2428,0036,-19.68,22.64,30.0000,319.0000
1983-10-09 22:30:00 UTC,2445617.437500,28.7317,-95.2428,0036,-19.03,21.89,29.0000,319.0000
1983-10-09 23:00:00 UTC,2445617.458333,28.7317,-95.2428,0036,-19.80,19.80,28.0000,315.0000
1983-10-09 23:30:00 UTC,2445617.479167,28.7317,-95.2428,0036,-19.42,18.76,27.0000,314.0000
1983-10-10 00:00:00 UTC,2445617.500000,28.7317,-95.2428,0036,-18.58,16.73,25.0000,312.0000
1983-10-10 00:30:00 UTC,2445617.520833,28.7317,-95.2428,0036,-21.81,14.16,26.0000,303.0000
1983-10-10 01:00:00 UTC,2445617.541667,28.7317,-95.2428,0036,-26.07,12.71,29.0000,296.0000
1983-10-10 01:30:00 UTC,2445617.562500,28.7317,-95.2428,0036,-27.82,11.24,30.0000,292.0000
1983-10-10 02:00:00 UTC,2445617.583333,28.7317,-95.2428,0036,-28.94,11.11,31.0000,291.0000
1983-10-10 02:30:00 UTC,2445617.604167,28.7317,-95.2428,0036,-29.23,13.02,32.0000,294.0000
1983-10-10 03:00:00 UTC,2445617.625000,28.7317,-95.2428,0036,-28.86,16.00,33.0000,299.0000
1983-10-10 03:30:00 UTC,2445617.645833,28.7317,-95.2428,0036,-30.00,18.03,35.0000,301.0000
1983-10-10 04:00:00 UTC,2445617.666667,28.7317,-95.2428,0036,-31.18,18.00,36.0000,300.0000
1983-10-10 04:30:00 UTC,2445617.687500,28.7317,-95.2428,0036,-31.79,16.90,36.0000,298.0000
1983-10-10 05:00:00 UTC,2445617.708333,28.7317,-95.2428,0036,-32.97,16.80,37.0000,297.0000